Skip Page Navigation
NASA JPL Caltech
NASA Logo - Jet Propulsion Laboratory + View the NASA Portal
+ Center for Near-Earth Object Studies
JPL Home Earth Solar System Stars & Galaxies Technology
JPL Solar System Dynamics
BODIES ORBITS EPHEMERIDES TOOLS PHYSICAL DATA DISCOVERY FAQ SITE MAP
IMPORTANT: The SSD Announcement email list is now available. Major changes are coming in the near future, including possible hostname and/or URL changes. To be notified of such changes, subscribe to this email list.

Please visit this page for more details.


JPL Small-Body Database Browser
Search: [ help ]  
56564 (2000 JY10)
Classification: Main-belt Asteroid          SPK-ID: 2056564
Ephemeris | Orbit Diagram | Orbital Elements | Mission Design | Physical Parameters | Discovery Circumstances | Close-Approach Data ]

[ show orbit diagram ]
Orbital Elements at Epoch 2458600.5 (2019-Apr-27.0) TDB
Reference: JPL 23 (heliocentric ecliptic J2000)
 Element Value Uncertainty (1-sigma)   Units 
e .1049582713007617 3.488e-08  
a 2.305904264223042 9.6033e-09 au
q 2.063880538865137 8.0048e-08 au
i 6.342476544675979 4.388e-06 deg
node 274.6019961980837 3.9749e-05 deg
peri 334.004715911225 4.6025e-05 deg
M 125.4464264952299 2.3153e-05 deg
tp 2458154.827200192266
(2018-Feb-05.32720019)
8.1978e-05 TDB
period 1278.969934921862
3.50
7.9897e-06
2.187e-08
d
yr
n .2814765149440311 1.7584e-09 deg/d
Q 2.547927989580947 1.0611e-08 au
  Orbit Determination Parameters
   # obs. used (total)      910  
   data-arc span      8779 days (24.04 yr)  
   first obs. used      1995-11-20  
   last obs. used      2019-12-03  
   planetary ephem.      DE431  
   SB-pert. ephem.      SB431-N16  
   condition code      0  
   norm. resid. RMS      .54631  
   source      ORB  
   producer      Otto Matic  
   solution date      2019-Dec-14 05:45:12  

Additional Information
 Earth MOID = 1.05143 au 
 Jupiter MOID = 2.49161 au 
 T_jup = 3.572 
[ show covariance matrix ]

Ephemeris | Orbit Diagram | Orbital Elements | Mission Design | Physical Parameters | Discovery Circumstances | Close-Approach Data ]

Physical Parameter Table
Parameter Symbol Value Units Sigma Reference Notes
absolute magnitude H 15.7   n/a MPO351235  

56564 (2000 JY10)          Discovered 2000-May-03 by LINEAR at Socorro
Reference: 20030318/Numbers.arcLast Updated: 2004-04-19

[ show close-approach data ]
Alternate Designations
 2000 JY10 = 2001 SG74 
Ephemeris | Orbit Diagram | Orbital Elements | Mission Design | Physical Parameters | Discovery Circumstances | Close-Approach Data ]
ABOUT SSD CREDITS/AWARDS PRIVACY/COPYRIGHT GLOSSARY LINKS
FirstGov 2020-Jan-20 12:28 UT
(server date/time)  
NASA Home Page
Site Manager:   Ryan S. Park
Webmaster  Alan B. Chamberlin